Kosmos-2477

operational
NORAD ID: 37869 Int'l Des: 2011-064 Owner: KVR/IACG Country: RU Constellation: GLONASS
MEOCIRCULAR

Über Kosmos-2477

Beschreibung wird geladen...

Live-Position

3D-Globus wird geladen...

Nächste Überflüge

Höhenverlauf

Altitude vs Time

uPlot chart will show altitude changes over time

Zweizeiliger Elementsatz

1 37869U 11064C 25298.39766889 .00000022 00000-0 00000+0 0 9990
2 37869 65.1496 80.9030 0024715 246.7696 291.6576 2.13101668108761
Epoch: 25. Okt. 2025 • Age: 32 hours

Aktueller Status

Höhe 19162.5 km
Geschwindigkeit 3.95 km/s
Subsatellitenpunkt 43.43°N, 68.18°W
Startdatum 4. Nov. 2011
Alter 13.9 years
Typ other

Technische Details

Klassifizierung Payload
Masse 1450.00 kg
Trockenmasse 1200.00 kg
Gesamtmasse 1450.00 kg
Länge 4.00 m
Durchmesser 1.50 m
Spannweite 7.80 m
Form Cyl + Ant + 2 Pan
Hersteller RESH
Bus-Typ Uragan
Phasenstatus In Orbit
Besitzer/Staat KVR/IACG/RU

Große Konstellationen

Loading constellations...